Location: Mountain Grove
(34.0887°N, 86.6172°W)
Time: 01:22:59
(UTC+00:00)

Daily predictions for brighter satellites

Satellite Brightness Start Highest point End
(mag) Time Altitude Azimuth Time Altitude Azimuth Time Altitude Azimuth
Cosmos 1844 4.0 01:18:10 10° N 01:23:46 52° ENE 01:29:15 10° SE
USA 234 4.2 01:17:37 10° SSE 01:23:46 43° SW 01:29:58 10° WNW
Cosmos 2322 4.2 01:18:07 10° SSW 01:23:48 71° WNW 01:29:32 10° NNE
NOSS 3-3 (A) 4.2 01:19:26 10° SW 01:25:05 72° WNW 01:31:21 10° NNE
NOSS 3-3 (C) 4.2 01:19:30 10° SW 01:25:10 73° WNW 01:31:28 10° NNE
Gbstr 26 Del rocket 3.3 01:22:07 10° SSW 01:25:50 34° SE 01:29:16 10° ENE
ATLAS CENTAUR R/B 2.4 01:25:41 10° N 01:28:47 25° NE 01:31:53 10° ESE
COSMOS 2428 2.7 01:23:38 10° SSW 01:29:16 74° ESE 01:34:56 10° NNE
Cosmos 1953 Rocket 4.3 01:26:08 10° SSE 01:29:57 32° E 01:33:47 10° NNE
Cosmos 1328 3.9 01:26:53 10° S 01:30:44 52° E 01:34:36 10° NNE
OAO 3 Copernicus 4.4 01:26:16 10° W 01:31:22 90° SW 01:36:28 10° E
ATLAS CENTAUR R/B 3.6 01:30:41 10° W 01:32:39 19° SW 01:35:46 10° S
Cosmos 1709 Rocket 4.4 01:27:20 10° SSE 01:33:17 45° E 01:39:17 10° NNE
Resurs 01 Rocket 3.1 01:31:46 10° ESE 01:35:00 20° ENE 01:38:14 10° NNE
Nadezhda 1 Rocket 4.1 01:31:17 10° N 01:37:39 70° E 01:43:55 10° SSE
Cosmos 1825 Rocket 3.6 01:35:39 10° S 01:40:03 70° E 01:44:30 10° NNE
SJ-6B 2.9 01:37:06 10° SSE 01:41:08 79° ENE 01:45:13 10° N
Hubble Space Telescope 1.5 01:40:55 10° WSW 01:44:44 37° S 01:48:07 13° ESE
H-2A R/B 3.2 01:40:16 10° S 01:45:29 47° W 01:50:42 10° NNW
Milstar 3 4.4 01:36:20 10° W 01:45:41 62° S 02:03:26 11° ESE
Cosmos 1844 Rocket 2.8 01:41:04 10° NNW 01:46:39 78° WSW 01:52:12 10° SSE
IUS-9 SRM-1 3.7 01:45:38 10° WSW 01:47:11 12° SW 01:48:17 10° S
BREEZE-M DEB (TANK) 3.7 01:35:03 10° SW 01:47:16 87° SE 01:50:25 10° NE
ATLAS 2AS CENTAUR R/B 4.5 01:43:10 10° N 01:48:25 20° NE 01:53:23 10° E
SEDSat Delta rocket 4.1 01:44:32 10° SW 01:49:27 40° SSE 01:55:02 10° E
Resurs 1-3 4.0 01:45:22 10° SSE 01:49:31 45° ENE 01:53:43 10° N
Cosmos-2242 3.2 01:47:42 10° N 01:52:01 56° E 01:56:19 10° SSE
Cosmos 2333 Rocket 3.1 01:48:09 10° SW 01:53:41 54° WNW 01:59:17 10° NNE
USA 186 3.4 01:52:19 10° SSW 01:55:17 33° W 01:58:09 10° NNW
Cosmos 1538 Rocket 4.3 01:50:35 10° SSW 01:55:55 77° WNW 02:01:16 10° NNE
NOSS 0 Rocket 3.9 01:51:02 10° S 01:57:05 64° ESE 02:03:11 10° NNE
SPOT 3 Rocket 3.7 01:51:59 10° SSE 01:57:05 60° ENE 02:02:14 10° N
OAO 2 Rocket 3.5 01:51:59 10° W 01:57:10 67° SSW 02:01:23 16° ESE
Cosmos 1455 2.8 01:54:45 10° NNW 01:58:34 58° W 02:02:21 10° S
DMSP B5D2-2 4.5 01:56:43 10° N 02:01:53 66° WNW 02:07:01 10° SSW
Cosmos 2084 3.5 01:58:51 10° NNW 02:03:18 72° ENE 02:06:28 18° SE
Cosmos 2278 Rocket 3.4 01:58:52 10° N 02:03:38 27° ENE 02:07:03 16° ESE
SL-16 R/B 3.5 02:09:56 18° ESE 02:11:11 19° E 02:15:03 10° ENE
Alouette 2 Rocket 4.4 02:08:59 10° N 02:13:56 81° E 02:21:45 10° S
Spot 2 Rocket 4.4 02:19:25 22° ESE 02:21:50 33° ENE 02:26:21 10° N
Cosmos 2112 Rocket 4.2 02:19:13 10° S 02:24:20 49° ESE 02:29:30 10° NNE
BREEZE M DEB (TANK) 3.2 02:27:27 10° SW 02:30:48 90° ESE 02:42:06 10° NE
BREEZE M DEB (TANK) 4.2 02:31:05 10° N 02:32:19 13° NNE 02:32:49 12° NE
Cosmos 2058 3.7 02:33:45 31° ESE 02:34:10 32° E 02:37:51 10° NNE
BREEZE-M R/B 4.4 02:23:45 10° NW 02:35:46 79° NE 02:39:01 28° ESE
Cosmos 2074 Rocket 4.0 02:34:54 21° SSE 02:39:07 59° E 02:45:12 10° NNE
Cosmos 1315 Rocket 2.8 02:36:21 10° N 02:40:30 84° ENE 02:42:08 36° SSE
Cosmos 1980 4.3 02:42:32 10° SW 02:48:04 57° WNW 02:53:38 10° NNE
Cosmos 44 3.2 02:44:23 10° SW 02:48:38 71° WNW 02:53:00 10° NNE
Cosmos 1680 Rocket 3.6 02:44:39 10° SSW 02:49:57 77° WNW 02:55:18 10° NNE
ISS -3.8 02:46:38 10° SW 02:49:59 82° NW 02:53:21 10° NE
DELTA 2 R/B (1) 4.4 02:47:32 10° WNW 02:52:55 49° N 02:57:10 16° ENE
Atlas Centaur 2 3.7 02:53:08 10° WSW 02:56:23 17° SSW 02:56:41 17° SSW
Cosmos 1892 2.5 02:56:31 66° ESE 02:56:38 67° E 03:00:25 10° NNE
Geosat 3.9 02:55:58 42° SE 02:57:40 77° ENE 03:02:42 10° NNW
Cosmos 2181 Rocket 4.2 02:51:43 10° N 02:57:55 71° W 03:01:54 23° S
Cosmos 2237 Rocket 3.3 02:58:54 10° SW 03:04:18 44° WNW 03:09:45 10° N
Cosmos 158 Rocket 4.5 03:01:04 10° SSW 03:05:49 55° WNW 03:10:39 10° N
Meteor 2-17 Rocket 4.3 03:02:52 29° S 03:06:06 84° E 03:12:10 10° N
Gblst 52 Del rocket 4.3 03:01:27 10° NW 03:07:10 77° SW 03:09:13 44° SSE
ATLAS CENTAUR R/B 3.3 03:05:02 10° WNW 03:07:25 17° WSW 03:08:23 15° SW
Landsat 7 3.7 03:07:35 51° S 03:08:47 86° WSW 03:13:34 10° NNW
Resurs 01 Rocket 3.2 03:08:51 18° SW 03:11:16 29° W 03:15:06 10° NW
NOSS 3-4 (A) 4.0 03:05:50 10° NNW 03:13:03 69° ENE 03:16:05 40° SE
NOSS 3-4 (C) 4.0 03:05:57 10° NNW 03:13:10 68° ENE 03:16:12 40° SE
OAO 3 Copernicus 4.2 03:10:55 10° W 03:16:01 84° N 03:17:09 55° E
ERS-1 Rocket 3.0 03:16:29 56° ESE 03:17:06 60° ENE 03:22:03 10° N
Cosmos 1943 Rocket 4.2 03:14:09 10° NNE 03:17:08 14° NE 03:18:23 13° ENE
Cosmos 1610 Rocket 4.4 03:20:17 40° S 03:22:46 86° E 03:29:11 10° N
Cosmos 1842 Rocket 4.2 03:19:19 10° NNW 03:23:30 49° W 03:24:15 43° SW
Cosmos 1825 3.5 03:25:59 32° NNE 03:25:59 32° NNE 03:28:12 10° NNE
Hubble Space Telescope 2.8 03:22:01 10° WSW 03:23:26 18° WSW 03:23:26 18° WSW
Cosmos 2344 3.8 03:18:09 10° SW 03:25:48 66° WNW 03:33:26 10° NNE
SPOT 1/Viking Rocket 3.6 03:26:27 54° SSW 03:27:30 71° WSW 03:32:41 10° NNW
Mugunghwa Rocket 4.4 03:22:50 10° WSW 03:28:22 43° S 03:28:22 43° S
Cosmos 1408 3.6 03:30:38 43° NNW 03:30:38 43° NNW 03:33:09 10° N
COSMOS 2455 4.3 03:27:12 10° N 03:31:59 24° NE 03:33:19 22° ENE
Cosmos 1624 Rocket 4.0 03:28:18 10° N 03:33:28 64° ENE 03:33:35 64° E
BREEZE-M DEB (TANK) 3.6 03:29:57 10° NW 03:34:51 32° NNE 03:34:51 32° NNE
Cosmos 2221 3.3 03:30:59 10° NNW 03:35:05 43° W 03:35:30 41° WSW
SEDSat Delta rocket 3.6 03:29:55 10° WSW 03:35:37 68° S 03:35:53 67° SSE
Cosmos 1869 4.5 03:33:40 10° NNW 03:37:25 37° W 03:37:35 37° W
CARTOSAT-1 3.7 03:38:11 71° NW 03:38:11 71° NW 03:42:07 10° NNW
ATLAS 2AS CENTAUR R/B 2.6 03:33:00 10° NNW 03:40:24 87° WSW 03:41:54 59° SSE
SPOT 5 2.8 03:41:55 85° NW 03:41:55 85° NW 03:46:32 10° NNW
Cosmos 2151 3.7 03:43:45 47° NNE 03:43:45 47° NNE 03:46:51 10° N
USA 215 3.1 03:37:38 10° NE 03:44:09 71° SE 03:46:25 43° SSW
Cosmos 2278 Rocket 3.2 03:42:36 10° NW 03:47:42 35° WSW 03:48:54 32° SW
SL-16 R/B 3.0 03:51:42 24° SW 03:54:49 48° WNW 04:00:19 10° N
GEOS 3 Rocket 4.3 03:50:23 10° NNE 03:55:38 56° NW 03:58:53 23° WSW
Terra 2.0 03:56:54 67° NNW 03:56:54 67° NNW 04:01:04 10° NNW
Cosmos 2297 3.7 03:53:39 10° NNW 03:59:13 70° NE 03:59:13 70° NE
Cosmos 2366 rocket 4.3 04:03:47 53° ENE 04:03:47 53° ENE 04:09:29 10° NNE
Cosmos 1371 Rocket 4.4 03:58:50 10° NNW 04:03:51 55° W 04:03:51 55° W
Cosmos 2218 Rocket 4.1 04:09:50 63° ENE 04:09:50 63° ENE 04:15:41 10° NNE
Cosmos 1420 Rocket 4.3 04:04:58 10° NNW 04:09:30 61° NNE 04:09:30 61° NNE
Thor Agena Rocket 4.5 04:18:56 10° NNE 04:22:13 40° NNE 04:22:13 40° NNE
ISS -0.2 04:26:03 10° NW 04:27:13 11° NNW 04:28:23 10° N
Cosmos 1603 4.2 04:32:09 55° NNE 04:32:09 55° NNE 04:36:33 10° NNE
SL-8 Rocket 4.1 04:32:32 67° W 04:32:32 67° W 04:38:38 10° N
Cosmos 2369 Rocket 3.1 04:28:37 10° N 04:33:06 40° NE 04:33:06 40° NE
DELTA 2 R/B (1) 4.4 04:34:07 10° WNW 04:37:55 45° WNW 04:37:55 45° WNW
Lacrosse 5 rocket 3.8 04:36:46 10° NNW 04:38:15 19° N 04:38:15 19° N
Cosmos 1452 Rocket 4.5 04:48:05 10° NNW 04:51:41 43° NW 04:51:41 43° NW
Cosmos 1943 Rocket 2.9 04:55:47 10° NNW 04:59:53 48° NW 04:59:53 48° NW
Cosmos 1727 Rocket 4.2 04:56:44 10° N 05:02:04 66° N 05:02:04 66° N
Lacrosse 5 3.8 05:08:05 23° NE 05:08:05 23° NE 05:09:58 10° NE
COSMOS 2455 3.9 05:12:21 10° NW 05:16:26 39° WNW 05:16:26 39° WNW
Cosmos 1943 4.3 05:25:12 38° NW 05:25:12 38° NW 05:29:54 10° N
CZ-4C R/B 3.0 05:34:46 10° NNW 05:42:00 77° WNW 05:42:00 77° WNW
USA 267 3.7 05:54:09 51° ENE 05:54:55 54° NE 06:01:14 10° NW
Cosmos 2123 Rocket 4.5 06:03:16 10° N 06:08:02 56° NNW 06:08:02 56° NNW
Cosmos 2369 Rocket 4.4 06:13:26 10° NW 06:14:52 15° WNW 06:14:52 15° WNW
Cosmos 1605 Rocket 4.4 06:25:58 58° NNW 06:25:58 58° NNW 06:31:04 10° N
Resurs 1-4 Rocket 3.8 06:32:18 10° NE 06:35:35 26° ENE 06:35:35 26° ENE
Lacrosse 5 4.2 06:47:13 15° NW 06:48:27 16° NW 06:51:35 10° N
Cosmos 2173 Rocket 4.2 06:56:53 69° NE 06:56:53 69° NE 07:02:40 10° N
Cosmos 2016 Rocket 4.3 07:07:36 58° E 07:07:36 58° E 07:13:29 10° NNE
SL-16 R/B 3.0 07:12:18 50° ESE 07:13:14 55° ENE 07:19:20 10° N
Meteor 2-4 Rocket 4.5 07:08:30 10° N 07:14:11 47° ENE 07:14:40 46° E
Cosmos 1697 Rocket 4.4 07:18:32 10° N 07:23:17 28° ENE 07:27:06 14° ESE
SeaSat 1 3.0 07:20:14 10° NNE 07:24:07 54° NE 07:24:07 54° NE
Cosmos 2082 Rocket 2.8 07:28:05 49° E 07:28:05 49° E 07:33:21 10° NNE
CZ-4B R/B 4.1 07:24:47 10° NNE 07:28:58 48° ENE 07:28:58 48° ENE
Cosmos 1833 Rocket 2.7 07:31:40 73° N 07:31:40 73° N 07:36:45 10° NNE
IRS-1D 4.4 07:26:37 10° NNE 07:30:55 41° E 07:30:55 41° E
Cosmos 1140 Rocket 3.9 07:32:14 59° N 07:32:14 59° N 07:36:34 10° NNE
Aureole 1 Rocket 3.9 07:33:50 53° NNE 07:33:50 53° NNE 07:38:06 10° NNE
CZ-2D R/B 2.3 07:29:36 10° N 07:34:24 69° NNW 07:34:24 69° NNW
Cosmos 407 Rocket 4.2 07:36:02 47° NW 07:36:02 47° NW 07:40:28 10° N
COSMOS 2406 3.7 07:37:53 49° NW 07:37:53 49° NW 07:43:11 10° N
Cosmos 1656 3.6 07:36:34 10° NNW 07:41:57 76° ENE 07:41:57 76° ENE
CBERS-1 4.3 07:39:10 10° NNE 07:44:09 57° E 07:44:09 57° E
Cosmos 2233 Rocket 4.0 07:53:28 59° SSE 07:54:35 74° E 08:00:49 10° N
Cosmos 2346 Rocket 4.2 07:49:16 10° N 07:55:24 79° W 07:55:55 73° SW
Cosmos 1733 Rocket 3.5 07:57:57 58° NE 07:57:57 58° NE 08:01:36 10° NNE
Cosmos 676 Rocket 4.0 07:57:50 68° NW 07:57:50 68° NW 08:02:53 10° NNE
ARIANE 5 R/B 3.6 07:58:26 10° NNE 08:03:12 38° E 08:04:30 33° SE
IRS-1C 4.4 08:01:43 10° NNE 08:07:00 59° E 08:08:02 50° SE
Meteor 1-13 Rocket 4.1 08:01:33 10° N 08:07:16 86° E 08:08:17 62° SSE
ADEOS II 1.9 08:06:27 10° NNE 08:11:44 90° ESE 08:12:21 71° SSW
AQUA 4.4 08:07:46 10° N 08:11:55 43° WNW 08:11:55 43° WNW
ATLAS 2A CENTAUR R/B 3.9 08:15:30 32° SSE 08:15:30 32° SSE 08:18:21 10° ESE
NPP 4.4 08:09:44 10° N 08:14:39 37° WNW 08:14:49 37° WNW
Resurs 1-4 Rocket 3.2 08:12:03 10° N 08:16:34 29° WNW 08:16:39 29° WNW
Centaur AC-72 4.2 08:18:11 23° SSE 08:18:11 23° SSE 08:21:41 10° SE
Cosmos 1725 Rocket 4.5 08:19:52 40° W 08:20:29 41° W 08:26:20 10° N
USA 238 DEB 4.3 08:20:44 30° SSE 08:23:24 45° ESE 08:29:45 10° NE
USA 238 4.3 08:20:49 30° SSE 08:23:30 44° ESE 08:29:49 10° NE
Cosmos 1536 3.7 08:25:47 38° NW 08:25:47 38° NW 08:28:51 10° N
ATLAS 5 CENTAUR R/B 3.8 08:26:44 10° NNW 08:32:20 41° NE 08:38:40 10° ESE
CENTAUR R/B 4.0 08:29:59 16° SSE 08:33:10 25° ESE 08:38:07 10° NE
Cosmos 1975 4.4 08:33:08 22° SE 08:34:52 31° E 08:38:24 10° NNE
H-2A R/B 4.4 08:31:41 10° ESE 08:35:10 23° ENE 08:38:36 10° NNE
SL-27 R/B 4.0 08:35:04 27° ESE 08:35:41 29° E 08:38:44 10° NE
Cosmos 2369 3.6 08:33:36 10° NNW 08:39:18 70° WSW 08:42:09 30° S
Cosmos 1980 Rocket 2.5 08:33:46 10° NNW 08:39:27 66° ENE 08:45:03 10° SSE
CZ-2C R/B 4.2 08:38:16 10° NNE 08:41:59 35° E 08:43:53 22° SSE
Tsikada Rocket 4.4 08:36:35 10° NNW 08:42:37 44° W 08:44:16 37° SW
Cosmos 921 Rocket 2.8 08:39:06 10° NNW 08:43:27 69° WSW 08:44:01 60° SSW
IRS-P3 4.4 08:40:27 10° N 08:45:37 52° WNW 08:47:05 40° WSW
IDEFIX/ARIANE 42P 2.9 08:41:44 10° NNE 08:46:52 61° E 08:49:47 25° S
Meteor 2-11 Rocket 4.4 08:44:47 38° SSW 08:47:03 64° W 08:53:06 10° N
ERS-2 4.3 08:46:34 10° SE 08:49:38 26° ENE 08:52:42 10° NNE
Meteor 1-28 Rocket 3.1 08:51:07 45° SSE 08:52:12 85° ENE 08:55:56 10° N
Cosmos 1867 3.8 08:50:00 32° S 08:52:28 63° ESE 08:57:51 10° NE
Cosmos 1378 Rocket 3.4 08:50:12 10° N 08:54:37 80° W 08:56:31 34° S
SL-16 R/B 3.9 08:57:23 19° W 08:57:23 19° W 09:01:28 10° NW
ERBS 2.5 08:59:02 50° SSE 08:59:26 55° SE 09:02:40 10° NE
Cosmos 2278 3.6 08:53:56 10° NNW 08:59:39 71° WSW 09:05:18 10° S
CZ-2C R/B 4.4 08:58:20 10° NE 09:02:04 23° E 09:05:42 10° SSE
SL-16 R/B 4.3 08:57:17 10° N 09:02:07 28° ENE 09:06:54 10° ESE
Cosmos 1464 Rocket 4.0 08:58:17 23° S 09:02:33 85° W 09:08:56 10° N
MSX 4.2 08:57:13 10° NNE 09:02:54 60° ESE 09:07:45 14° S
COBE Rocket 4.5 09:01:51 34° SW 09:02:54 38° W 09:07:31 10° NNW
Okean 2 4.2 09:02:06 10° N 09:06:04 49° E 09:10:00 10° SSE
OAO 1 4.5 09:03:07 27° W 09:06:13 90° SE 09:11:46 10° E
SL-19 R/B 3.8 09:04:09 10° NNE 09:07:12 78° ESE 09:08:15 40° S
Cosmos 1697 Rocket 3.3 09:02:13 10° NW 09:07:13 34° WSW 09:08:43 29° SW
Cosmos 1271 Rocket 3.3 09:06:43 10° N 09:10:24 54° E 09:14:03 10° SSE
Cosmos 1263 4.2 09:08:14 10° NNW 09:11:13 64° W 09:12:02 43° SSW
ATLAS 2A CENTAUR R/B 3.1 09:11:06 11° SSE 09:11:15 11° SE 09:12:21 10° SE
Cosmos 2082 Rocket 3.8 09:09:56 17° W 09:12:11 21° WNW 09:16:23 10° N
Cosmos 2034 Rocket 4.0 09:08:08 14° S 09:13:30 83° E 09:19:41 10° N
Cosmos 1763 Rocket 3.5 09:08:33 10° NNW 09:13:51 89° ENE 09:19:09 10° SSE
CZ-2D R/B 3.8 09:09:47 10° N 09:13:59 51° WNW 09:15:42 31° SW
Cosmos 1544 3.2 09:17:21 36° SW 09:18:27 51° W 09:21:57 10° N
Abrixas rocket 4.5 09:17:06 10° NNW 09:19:31 23° NNE 09:21:55 10° E
Cosmos 1674 Rocket 4.5 09:15:57 10° NNW 09:19:40 28° W 09:20:31 26° WSW
ISS -1.0 09:19:04 10° NNW 09:21:46 22° NE 09:24:28 10° E
ATLAS 3B R/B 4.4 09:16:38 10° SSE 09:21:53 25° ESE 09:27:08 10° ENE
NOSS 3-2 (C) 3.4 09:18:36 20° SSW 09:22:29 75° ESE 09:28:35 10° NE
Cosmos 1743 4.0 09:22:56 22° W 09:23:29 23° WNW 09:26:33 10° NNW
Cosmos 1782 Rocket 3.6 09:21:46 23° SSW 09:24:22 59° W 09:28:45 10° N
Cosmos 468 Rocket 4.1 09:20:18 10° NNW 09:25:31 59° WSW 09:30:43 10° S
ATLAS 2A CENTAUR R/B 3.7 09:14:49 10° W 09:25:34 40° SSW 09:28:56 10° SE
Cosmos 1570 Rocket 4.4 09:23:36 10° N 09:28:51 67° ENE 09:34:06 10° SSE
NOSS 3-2 (A) 3.7 09:31:00 20° WSW 09:34:46 51° NW 09:40:48 10° NNE
Landsat 5 3.2 09:32:16 10° S 09:36:13 78° WSW 09:40:05 10° NNW
COSMOS 2441 4.3 09:31:48 10° N 09:36:35 72° WNW 09:40:56 12° SSW
SL-08 R/B 4.5 09:37:11 19° SW 09:39:03 24° W 09:42:54 10° NW
COSMOS 2487 4.1 09:36:41 10° SSE 09:39:44 30° ESE 09:42:48 10° NE
Cosmos 540 Rocket 3.6 09:35:41 10° NNW 09:40:50 77° ENE 09:45:58 10° SSE
Meteor 2-9 Rocket 4.2 09:36:47 15° SSW 09:41:09 54° W 09:46:23 10° N
Cosmos 1242 Rocket 3.7 09:38:22 10° NW 09:41:09 23° W 09:42:14 19° WSW
Cosmos 841 Rocket 3.6 09:36:31 10° NNW 09:41:43 83° ENE 09:46:54 10° SSE
ARIANE 5 R/B 4.0 09:38:13 10° NNW 09:42:00 21° WNW 09:44:49 14° WSW
Cosmos 2322 Rocket 3.2 09:37:48 10° N 09:43:20 51° ENE 09:48:50 10° SE
Meteor 1-12 Rocket 4.5 09:40:58 10° S 09:46:36 75° E 09:52:23 10° NNE
Sich 1 Rocket 3.9 09:45:04 12° SSW 09:49:08 51° W 09:53:32 10° N
Cosmos 1818 3.6 09:47:39 10° NW 09:53:01 62° WSW 09:58:21 10° SSE
CZ-4B R/B 2.4 09:54:07 10° SSE 09:57:29 52° ENE 10:00:53 10° N
Intercosmos 25 Rocket 4.4 09:54:52 10° NNW 09:59:22 59° W 10:06:46 10° S
deb Chang Zheng 4 3.5 09:55:20 10° N 09:59:36 77° WNW 10:03:53 10° SSW
Cosmos 1833 4.3 09:55:28 10° SSW 10:01:05 80° ESE 10:06:44 10° NNE
Cosmos 1092 Rocket 4.1 09:56:21 10° N 10:02:42 88° E 10:08:59 10° S
Cosmos 1484 Rocket 4.3 10:01:42 10° NNE 10:05:17 36° E 10:08:46 10° SSE
H-2A R/B 3.2 10:07:20 10° SSW 10:10:59 25° W 10:14:36 10° NW
Cosmos 1975 Rocket 3.9 10:07:17 10° NNW 10:11:14 32° W 10:15:11 10° SSW
CZ-4C R/B 4.4 10:09:52 10° SW 10:12:04 17° W 10:14:15 10° NW
Cosmos 2360 Rocket 3.4 10:09:50 10° N 10:15:20 49° ENE 10:20:47 10° SE
Nadezhda 4 Rocket 4.5 10:10:04 10° NNW 10:15:57 42° W 10:21:49 10° SSW
Cosmos 1486 Rocket 4.1 10:10:56 10° SSW 10:16:11 67° WNW 10:21:26 10° N
PSLV R/B 4.3 10:12:15 10° N 10:16:13 36° WNW 10:20:11 10° SW
ATLAS 5 CENTAUR R/B 3.2 10:11:29 10° NW 10:17:02 34° WSW 10:23:09 10° S
CZ-3B R/B 3.2 10:15:40 10° WSW 10:24:17 34° SSW 10:27:39 10° SE
